Cambridge, MD

7:24 AM EDT on May 25, 2017 (GMT -0400)
Cambridge-Dorchester

Weather History for KCGE - July, 2013

Change the Weather History Date:

Monday, July 15, 2013

  Actual Average (KESN) Record (KESN)
Temperature  
Mean Temperature 80 °F -  
Max Temperature 89 °F 88 °F 97 °F (1954)
Min Temperature 71 °F 66 °F 58 °F (1971)
Cooling Degree Days 15    
Growing Degree Days 30 (Base 50)    
Moisture  
Dew Point 73 °F    
Average Humidity 77    
Maximum Humidity 94    
Minimum Humidity 52    
Precipitation  
Precipitation 0.00 in - - ()
Sea Level Pressure  
Sea Level Pressure 30.26 in    
Wind  
Wind Speed 2 mph (WNW)    
Max Wind Speed 8 mph    
Max Gust Speed -    
Visibility 10 miles    
Events      
Averages and records for this station are not official NWS values.
T = Trace of Precipitation, MM = Missing Value Source: NWS Daily Summary

Daily Weather History Graph

Daily Weather History Graph

Search for Another Location

Airport or City:

Trip Planner

Search our weather history database for the weather conditions in past years. The results will help you decide how hot, cold, wet, or windy it might be!

Date:

Astronomy

Jul. 15, 2013 Rise Set
Actual Time 5:52 AM EDT 8:27 PM EDT
Civil Twilight 5:21 AM EDT 8:58 PM EDT
Nautical Twilight 4:42 AM EDT 9:36 PM EDT
Astronomical Twilight 3:59 AM EDT 10:19 PM EDT
Moon 1:03 PM EDT (7/15) No Moon Set
Length of Visible Light 15h 37m
Length of Day
14h 35m
Waxing Crescent, 45% of the Moon is Illuminated
Jul 15
Waxing Crescent
Jul 15
First Quarter
Jul 22
Full
Jul 29
Last Quarter
Aug 6
New

Hourly Weather History & Observations

Time (EDT) Temp. Heat Index Dew Point Humidity Pressure Visibility Wind Dir Wind Speed Gust Speed Precip Events Conditions
12:03 AM 75.2 °F - 71.6 °F 89% 30.31 in 10.0 mi Calm Calm - N/A   Clear
12:23 AM 75.2 °F - 73.4 °F 94% 30.30 in 10.0 mi Calm Calm - N/A   Clear
12:43 AM 75.2 °F - 73.4 °F 94% 30.30 in 10.0 mi Calm Calm - N/A   Clear
1:03 AM 73.4 °F - 71.6 °F 94% 30.29 in 10.0 mi Calm Calm - N/A   Clear
1:23 AM 73.4 °F - 71.6 °F 94% 30.29 in 10.0 mi Calm Calm - N/A   Clear
1:43 AM 73.4 °F - 71.6 °F 94% 30.29 in 10.0 mi Calm Calm - N/A   Clear
2:03 AM 73.4 °F - 71.6 °F 94% 30.29 in 10.0 mi Calm Calm - N/A   Clear
2:23 AM 73.4 °F - 71.6 °F 94% 30.29 in 10.0 mi Calm Calm - N/A   Clear
2:43 AM 73.4 °F - 71.6 °F 94% 30.29 in 10.0 mi Calm Calm - N/A   Clear
3:03 AM 73.4 °F - 71.6 °F 94% 30.29 in 7.0 mi Calm Calm - N/A   Clear
3:23 AM 71.6 °F - 69.8 °F 94% 30.28 in 10.0 mi Calm Calm - N/A   Clear
3:43 AM 73.4 °F - 71.6 °F 94% 30.28 in 10.0 mi Calm Calm - N/A   Clear
4:03 AM 73.4 °F - 71.6 °F 94% 30.28 in 10.0 mi Calm Calm - N/A   Clear
4:23 AM 73.4 °F - 71.6 °F 94% 30.29 in 10.0 mi Calm Calm - N/A   Clear
4:43 AM 73.4 °F - 71.6 °F 94% 30.29 in 5.0 mi WSW 3.5 mph - N/A   Clear
5:03 AM 73.4 °F - 71.6 °F 94% 30.29 in 5.0 mi WSW 3.5 mph - N/A   Clear
5:23 AM 73.4 °F - 71.6 °F 94% 30.30 in 5.0 mi Calm Calm - N/A   Clear
5:43 AM 73.4 °F - 71.6 °F 94% 30.30 in 5.0 mi Calm Calm - N/A   Clear
6:04 AM 73.4 °F - 71.6 °F 94% 30.30 in 5.0 mi Calm Calm - N/A   Clear
6:24 AM 73.4 °F - 71.6 °F 94% 30.30 in 3.0 mi Calm Calm - N/A   Clear
6:44 AM 73.4 °F - 71.6 °F 94% 30.31 in 10.0 mi Calm Calm - N/A   Clear
7:04 AM 75.2 °F - 73.4 °F 94% 30.31 in 10.0 mi Calm Calm - N/A   Clear
7:24 AM 75.2 °F - 73.4 °F 94% 30.31 in 10.0 mi Calm Calm - N/A   Clear
7:44 AM 75.2 °F - 71.6 °F 89% 30.31 in 10.0 mi Calm Calm - N/A   Clear
8:04 AM 77.0 °F - 73.4 °F 89% 30.31 in 10.0 mi SW 3.5 mph - N/A   Mostly Cloudy
8:24 AM 78.8 °F - 73.4 °F 83% 30.31 in 10.0 mi SW 3.5 mph - N/A   Mostly Cloudy
8:44 AM 78.8 °F - 73.4 °F 83% 30.31 in 10.0 mi WSW 4.6 mph - N/A   Mostly Cloudy
9:04 AM 80.6 °F 86.2 °F 75.2 °F 84% 30.31 in 10.0 mi WSW 5.8 mph - N/A   Scattered Clouds
9:24 AM 80.6 °F 85.4 °F 73.4 °F 79% 30.31 in 10.0 mi West 5.8 mph - N/A   Scattered Clouds
9:44 AM 80.6 °F 85.4 °F 73.4 °F 79% 30.31 in 10.0 mi SW 4.6 mph - N/A   Scattered Clouds
10:04 AM 82.4 °F 88.2 °F 73.4 °F 74% 30.30 in 10.0 mi West 4.6 mph - N/A   Scattered Clouds
10:24 AM 82.4 °F 88.2 °F 73.4 °F 74% 30.30 in 10.0 mi West 5.8 mph - N/A   Scattered Clouds
10:44 AM 82.4 °F 88.2 °F 73.4 °F 74% 30.29 in 10.0 mi WNW 4.6 mph - N/A   Clear
11:04 AM 84.2 °F 90.9 °F 73.4 °F 70% 30.29 in 10.0 mi Calm Calm - N/A   Clear
11:24 AM 84.2 °F 90.9 °F 73.4 °F 70% 30.29 in 10.0 mi WNW 4.6 mph - N/A   Scattered Clouds
11:44 AM 84.2 °F 90.9 °F 73.4 °F 70% 30.28 in 10.0 mi North 3.5 mph - N/A   Mostly Cloudy
12:04 PM 84.2 °F 90.9 °F 73.4 °F 70% 30.28 in 10.0 mi North 4.6 mph - N/A   Scattered Clouds
12:24 PM 86.0 °F 93.4 °F 73.4 °F 66% 30.27 in 10.0 mi North 8.1 mph - N/A   Mostly Cloudy
12:44 PM 86.0 °F 91.8 °F 71.6 °F 62% 30.27 in 10.0 mi NNW 5.8 mph - N/A   Mostly Cloudy
1:04 PM 87.8 °F 93.8 °F 71.6 °F 58% 30.27 in 10.0 mi North 4.6 mph - N/A   Scattered Clouds
1:24 PM 87.8 °F 92.6 °F 69.8 °F 55% 30.26 in 10.0 mi NNW 8.1 mph - N/A   Clear
1:44 PM 87.8 °F 92.6 °F 69.8 °F 55% 30.26 in 10.0 mi North 5.8 mph - N/A   Clear
2:04 PM 89.6 °F 96.2 °F 71.6 °F 55% 30.25 in 10.0 mi NNW 6.9 mph - N/A   Clear
2:24 PM 89.6 °F 94.7 °F 69.8 °F 52% 30.25 in 10.0 mi West 3.5 mph - N/A   Clear
2:45 PM 89.6 °F 96.2 °F 71.6 °F 55% 30.24 in 10.0 mi West 4.6 mph - N/A   Scattered Clouds
3:05 PM 89.6 °F 96.2 °F 71.6 °F 55% 30.24 in 10.0 mi NW 4.6 mph - N/A   Scattered Clouds
3:25 PM 89.6 °F 96.2 °F 71.6 °F 55% 30.23 in 10.0 mi NW 6.9 mph - N/A   Scattered Clouds
3:45 PM 89.6 °F 98.2 °F 73.4 °F 59% 30.23 in 10.0 mi NW 3.5 mph - N/A   Scattered Clouds
4:05 PM 89.6 °F 98.2 °F 73.4 °F 59% 30.22 in 10.0 mi WNW 6.9 mph - N/A   Scattered Clouds
4:25 PM 89.6 °F 96.2 °F 71.6 °F 55% 30.22 in 10.0 mi West 5.8 mph - N/A   Scattered Clouds
4:45 PM 89.6 °F 96.2 °F 71.6 °F 55% 30.22 in 10.0 mi Calm Calm - N/A   Scattered Clouds
5:05 PM 89.6 °F 96.2 °F 71.6 °F 55% 30.21 in 10.0 mi WNW 6.9 mph - N/A   Clear
5:25 PM 89.6 °F 96.2 °F 71.6 °F 55% 30.20 in 10.0 mi WNW 4.6 mph - N/A   Clear
5:45 PM 89.6 °F 96.2 °F 71.6 °F 55% 30.20 in 10.0 mi West 4.6 mph - N/A   Clear
6:05 PM 89.6 °F 98.2 °F 73.4 °F 59% 30.20 in 10.0 mi Calm Calm - N/A   Clear
6:25 PM 89.6 °F 98.2 °F 73.4 °F 59% 30.19 in 10.0 mi West 3.5 mph - N/A   Clear
6:45 PM 89.6 °F 98.2 °F 73.4 °F 59% 30.19 in 10.0 mi West 3.5 mph - N/A   Clear
7:05 PM 89.6 °F 98.2 °F 73.4 °F 59% 30.19 in 10.0 mi WSW 3.5 mph - N/A   Clear
7:25 PM 87.8 °F 95.6 °F 73.4 °F 62% 30.19 in 10.0 mi WSW 3.5 mph - N/A   Clear
7:45 PM 86.0 °F 93.4 °F 73.4 °F 66% 30.19 in 10.0 mi Calm Calm - N/A   Clear
8:05 PM 84.2 °F 90.9 °F 73.4 °F 70% 30.18 in 10.0 mi Calm Calm - N/A   Clear
8:25 PM 82.4 °F 88.2 °F 73.4 °F 74% 30.18 in 10.0 mi Calm Calm - N/A   Clear
8:45 PM 82.4 °F 89.5 °F 75.2 °F 79% 30.18 in 10.0 mi Calm Calm - N/A   Clear
9:05 PM 82.4 °F 89.5 °F 75.2 °F 79% 30.18 in 10.0 mi Calm Calm - N/A   Clear
9:25 PM 80.6 °F 86.2 °F 75.2 °F 84% 30.19 in 10.0 mi Calm Calm - N/A   Clear
9:45 PM 80.6 °F 87.1 °F 77.0 °F 89% 30.20 in 10.0 mi Calm Calm - N/A   Clear
10:05 PM 80.6 °F 87.1 °F 77.0 °F 89% 30.20 in 10.0 mi Calm Calm - N/A   Clear
10:25 PM 78.8 °F - 75.2 °F 89% 30.20 in 10.0 mi Calm Calm - N/A   Clear
10:45 PM 78.8 °F - 75.2 °F 89% 30.20 in 10.0 mi Calm Calm - N/A   Clear
11:05 PM 78.8 °F - 75.2 °F 89% 30.20 in 10.0 mi Calm Calm - N/A   Clear
11:26 PM 78.8 °F - 75.2 °F 89% 30.20 in 10.0 mi Calm Calm - N/A   Clear
11:46 PM 78.8 °F - 75.2 °F 89% 30.20 in 10.0 mi Calm Calm - N/A   Clear